Location: Beacon Field Observatory
(38.7700°N, 77.0829°W)
Time: 15:18:13
(UTC-05:00)

UKube-1 - Pass Details

Date: 10 December 2019
Orbit: 613 x 618 km, 98.5° (Epoch: 28 January)

Event Time Altitude Azimuth Distance (km) Brightness Sun altitude
Rises 05:59:13 0° 211° (SSW) 2,866 ? -14.4°
Reaches altitude 10° 06:02:28 10° 238° (WSW) 1,969 ? -13.8°
Enters shadow 06:02:51 11° 243° (WSW) 1,902 ? -13.8°
